TimeEDT,TemperatureF,Dew PointF,Humidity,Sea Level PressureIn,VisibilityMPH,Wind Direction,Wind SpeedMPH,Gust SpeedMPH,PrecipitationIn,Events,Conditions,WindDirDegrees,DateUTC
12:54 AM,45.0,30.0,56,29.75,10.0,WNW,18.4,27.6,N/A,,Mostly Cloudy,290,2012-11-01 04:54:00
1:54 AM,45.0,28.9,53,29.75,10.0,NW,16.1,27.6,N/A,,Mostly Cloudy,310,2012-11-01 05:54:00
2:54 AM,44.1,28.9,55,29.75,10.0,WNW,15.0,24.2,N/A,,Overcast,300,2012-11-01 06:54:00
3:54 AM,44.1,28.9,55,29.75,10.0,NW,20.7,28.8,N/A,,Overcast,310,2012-11-01 07:54:00
4:54 AM,44.1,30.0,58,29.74,10.0,WNW,19.6,27.6,N/A,,Mostly Cloudy,300,2012-11-01 08:54:00
5:54 AM,43.0,30.0,60,29.76,10.0,West,5.8,-,N/A,,Mostly Cloudy,270,2012-11-01 09:54:00
6:54 AM,43.0,30.0,60,29.77,10.0,WNW,8.1,-,N/A,,Mostly Cloudy,290,2012-11-01 10:54:00
7:54 AM,44.1,30.0,58,29.77,10.0,West,8.1,17.3,N/A,,Overcast,280,2012-11-01 11:54:00
8:54 AM,44.1,30.0,58,29.78,10.0,NW,20.7,32.2,N/A,,Mostly Cloudy,310,2012-11-01 12:54:00
9:54 AM,45.0,30.0,56,29.79,10.0,West,13.8,20.7,N/A,,Overcast,270,2012-11-01 13:54:00
10:54 AM,46.0,30.0,54,29.81,10.0,WNW,17.3,29.9,N/A,,Overcast,300,2012-11-01 14:54:00
11:54 AM,46.9,30.9,54,29.81,10.0,WNW,18.4,28.8,N/A,,Overcast,300,2012-11-01 15:54:00
12:54 PM,48.0,30.9,52,29.80,10.0,WNW,16.1,27.6,N/A,,Overcast,300,2012-11-01 16:54:00
1:54 PM,48.0,30.9,52,29.78,10.0,WNW,16.1,35.7,N/A,,Overcast,300,2012-11-01 17:54:00
2:54 PM,48.0,32.0,54,29.78,10.0,WNW,20.7,33.4,N/A,,Mostly Cloudy,300,2012-11-01 18:54:00
3:54 PM,46.9,33.1,59,29.79,10.0,West,11.5,19.6,N/A,,Overcast,280,2012-11-01 19:54:00
4:54 PM,48.9,32.0,52,29.79,10.0,WNW,24.2,32.2,N/A,,Mostly Cloudy,300,2012-11-01 20:54:00
5:54 PM,46.9,28.9,50,29.81,10.0,WNW,12.7,20.7,N/A,,Mostly Cloudy,290,2012-11-01 21:54:00
6:54 PM,45.0,28.9,53,29.83,10.0,WNW,6.9,-,N/A,,Partly Cloudy,290,2012-11-01 22:54:00
7:54 PM,44.1,28.9,55,29.83,10.0,Calm,Calm,-,N/A,,Clear,0,2012-11-01 23:54:00
8:54 PM,46.0,28.9,51,29.83,10.0,WNW,13.8,20.7,N/A,,Clear,290,2012-11-02 00:54:00
9:54 PM,46.9,26.1,44,29.83,10.0,WNW,16.1,20.7,N/A,,Clear,300,2012-11-02 01:54:00
10:54 PM,48.0,23.0,37,29.83,10.0,WNW,21.9,31.1,N/A,,Clear,300,2012-11-02 02:54:00
11:54 PM,48.0,23.0,37,29.85,10.0,NW,15.0,26.5,N/A,,Partly Cloudy,310,2012-11-02 03:54:00